Regional Weather Roundup
Issued by NWS Newport/Morehead, NC

Current Version | Previous Version | Text Only | Print | Product List | Glossary Off
Versions: 1 2 3 4 5 6 7 8 9 10 11 12 13 14 15 16 17 18 19 20 21 22 23 24 25 26 27 28 29 30 31 32 33 34 35 36 37 38 39 40 41 42 43 44 45 46 47 48 49 50
000 ASUS42 KMHX 291925 RWRMHX WEATHER ROUNDUP FOR EASTERN NORTH CAROLINA NATIONAL WEATHER SERVICE NEWPORT/MOREHEAD CITY NC 300 PM EDT FRI JUL 29 2016 NOTE: "FAIR" INDICATES FEW OR NO CLOUDS BELOW 12,000 FEET WITH NO SIGNIFICANT WEATHER AND/OR OBSTRUCTIONS TO VISIBILITY NCZ015>017-031-032-045>047-102-103-292000- NORTH COAST CITY SKY/WX TMP DP RH WIND PRES REMARKS EDENTON PTSUNNY 91 74 57 N10 29.88S HX 100 ELIZABETH CITY CLOUDY 87 73 62 NW8 29.87R KITTY HAWK CLOUDY 91 74 56 NE3 29.86R HX 100 MANTEO N/A 88 75 66 N5 29.87S $$ NCZ045>047-081-094-103-104-292000- CENTRAL COAST CITY SKY/WX TMP DP RH WIND PRES REMARKS FRISCO SUNNY 86 78 77 SW12 29.89R $$ NCZ095-097-098-100-101-292000- SOUTHERN COAST CITY SKY/WX TMP DP RH WIND PRES REMARKS BEAUFORT PTSUNNY 88 79 74 SW20 29.89R HX 103 CEDAR ISLAND NOT AVBL JACKSONVILLE PTSUNNY 92 72 51 NW13 29.88S PINEY ISLAND NOT AVBL WILMINGTON MOSUNNY 95 73 48 W13 29.90S HX 104 $$ NCZ011>013-027>030-043-044-078>080-089-090>093-098-292000- COASTAL PLAIN CITY SKY/WX TMP DP RH WIND PRES REMARKS AHOSKIE CLOUDY 85 73 68 NW5 29.89S CLINTON MOSUNNY 92 72 50 NW8 29.91S ELIZABETHTOWN PTSUNNY 93 71 49 W6 29.91F HX 100 GOLDSBORO SUNNY 94 69 44 W8G18 29.89R GREENVILLE MOSUNNY 91 73 55 W8 29.91R HX 100 HAVELOCK PTSUNNY 92 72 51 W10G20 29.89S KENANSVILLE NOT AVBL KINSTON MOSUNNY 91 72 52 NW9 29.90R NEW BERN MOSUNNY 93 73 52 W7 29.89S HX 102 RICHLANDS MOSUNNY 96 73 47 W12 29.90S HX 105 ROCKY MOUNT PTSUNNY 91 72 53 NW7 29.90R WASHINGTON SUNNY 89 74 60 W5 29.88S WHITEVILLE MOSUNNY 91 72 53 W6 29.91S $$ AMZ130-135-150-152-154-156-158-170-250-252-270-ANZ085-086-088-633-658-670-292000- MARINE OBSERVATIONS STATION/POSITION TIME TEMP WIND PRES WAVE SWELL AIR SEA DIR/SP/G HT/PER HT/PER (UTC) (F) (DEG/KT/KT) (MB) (FT/S) (FT/S) CHESAPEAKE LIGHT NOT AVBL 64 E VA BEACH 1850 82 84 300/ 8/ 8 1011.2 3/ 6 3/ 6 DUCK 1900 80 68 50/ 10/ 11 1010.9 2 E DUCK 1811 74 N/A 1/13 OREGON INLET 1900 87 84 40/ 6/ 7 1011.2 13E OREGON INLT 1900 82 N/A 3/ 6 2/ 6 HATTERAS CG 1900 87 84 210/ 10/ 14 1011.7 DIAMOND BUOY 1850 86 85 220/ 19/ 21 1011.6 4/ 6 2/ 9 CAPE LOOKOUT 1900 88 210/ 14/ 19 1012.0 BEAUFORT LAB 1900 87 83 210/ 11/ 19 1011.6 30 SE NEW RVR IN 1908 86 85 220/ 16/ 21 1012.7 30 SE NEW RVR IN 1855 85 N/A 4/ 6 27 SE WRIGHTSVLE 1908 85 84 220/ 17/ 23 1012.9 5 SE WRIGHTSVLE 1908 83 80 210/ 16/ 19 1013.2 225 S CAPE HAT 1850 85 85 240/ 10/ 10 1015.9 3/ 6 3/ 6 41 SE CHARLESTON 1850 86 86 220/ 14/ 17 1014.1 3/ 6 2/ 8 $$

USA.gov is the U.S. government's official web portal to all federal, state and local government web resources and services.